Location: Greenwich
(51.4790°N, 0.0090°E)
Time: 19:41:09
(UTC+01:00)

Tiros 1 despin weight - All Passes

Search period start: 23 April 2024 00:00
Search period end: 03 May 2024 00:00
Orbit: 579 x 623 km, 48.2° (Epoch: 22 April)

Date Brightness Start Highest point End Pass type
(mag) Time Alt. Az. Time Alt. Az. Time Alt. Az.
23 Apr - 12:59:09 10° SSW 13:02:58 29° SSE 13:06:50 10° E daylight
23 Apr - 14:39:18 10° WSW 14:43:39 54° S 14:48:05 10° E daylight
23 Apr - 16:20:12 10° W 16:24:33 49° SSW 16:28:57 10° ESE daylight
23 Apr - 18:01:35 10° W 18:05:09 23° SSW 18:08:44 10° SSE daylight
24 Apr - 11:31:04 10° S 11:33:20 14° SE 11:35:38 10° ESE daylight
24 Apr - 13:09:33 10° SW 13:13:39 38° SSE 13:17:49 10° E daylight
24 Apr - 14:50:05 10° WSW 14:54:28 57° S 14:58:55 10° E daylight
24 Apr - 16:31:06 10° W 16:35:19 40° SSW 16:39:35 10° SE daylight
24 Apr - 18:12:59 10° WSW 18:15:43 16° SW 18:18:29 10° S daylight
25 Apr - 11:40:36 10° SSW 11:43:52 21° SSE 11:47:11 10° E daylight
25 Apr - 13:20:09 10° WSW 13:24:23 47° SSE 13:28:43 10° E daylight
25 Apr - 15:00:54 10° W 15:05:17 55° S 15:09:42 10° ESE daylight
25 Apr - 16:42:02 10° W 16:46:01 31° SSW 16:50:02 10° SE daylight
26 Apr - 11:50:41 10° SSW 11:54:28 29° SSE 11:58:19 10° E daylight
26 Apr - 13:30:50 10° WSW 13:35:09 54° S 13:39:33 10° E daylight
26 Apr - 15:11:44 10° W 15:16:03 49° SSW 15:20:25 10° ESE daylight
26 Apr - 16:53:06 10° W 16:56:38 23° SSW 17:00:11 10° SSE daylight
27 Apr - 10:22:33 10° S 10:24:49 14° SE 10:27:04 10° ESE daylight
27 Apr - 12:01:03 10° SW 12:05:07 38° SSE 12:09:15 10° E daylight
27 Apr - 13:41:34 10° WSW 13:45:55 57° S 13:50:20 10° ESE daylight
27 Apr - 15:22:34 10° W 15:26:46 40° SSW 15:31:00 10° SE daylight
27 Apr - 17:04:27 10° WSW 17:07:09 16° SW 17:09:52 10° S daylight
28 Apr - 10:32:02 10° SSW 10:35:17 21° SSE 10:38:34 10° E daylight
28 Apr - 12:11:34 10° WSW 12:15:48 47° SSE 12:20:06 10° E daylight
28 Apr - 13:52:20 10° W 13:56:41 55° S 14:01:04 10° ESE daylight
28 Apr - 15:33:28 10° W 15:37:24 31° SSW 15:41:23 10° SE daylight
29 Apr - 10:42:04 10° SSW 10:45:50 29° SSE 10:49:39 10° E daylight
29 Apr - 12:22:13 10° WSW 12:26:30 54° S 12:30:53 10° E daylight
29 Apr - 14:03:06 10° W 14:07:23 49° SSW 14:11:44 10° ESE daylight
29 Apr - 15:44:29 10° W 15:47:58 23° SSW 15:51:29 10° SSE daylight
30 Apr - 09:13:54 10° S 09:16:07 14° SE 09:18:21 10° ESE daylight
30 Apr - 10:52:23 10° SW 10:56:26 38° SSE 11:00:32 10° E daylight
30 Apr - 12:32:54 10° WSW 12:37:14 57° S 12:41:37 10° ESE daylight
30 Apr - 14:13:54 10° W 14:18:03 40° SSW 14:22:15 10° SE daylight
30 Apr - 15:55:48 10° WSW 15:58:27 16° SW 16:01:06 10° S daylight
01 May - 09:23:20 10° SSW 09:26:33 20° SSE 09:29:49 10° E daylight
01 May - 11:02:52 10° WSW 11:07:04 47° SSE 11:11:19 10° E daylight
01 May - 12:43:37 10° W 12:47:56 55° S 12:52:18 10° ESE daylight
01 May - 14:24:45 10° W 14:28:39 31° SSW 14:32:36 10° SE daylight
02 May - 09:33:18 10° SSW 09:37:03 28° SSE 09:40:51 10° E daylight
02 May - 11:13:27 10° WSW 11:17:44 54° S 11:22:03 10° E daylight
02 May - 12:54:21 10° W 12:58:36 48° SSW 13:02:54 10° ESE daylight
02 May - 14:35:43 10° W 14:39:10 22° SSW 14:42:39 10° SSE daylight
